Weather History for La Ceiba Airport, Honduras

Change the Weather History Date:

Saturday, October 27, 2012

  Actual Average Record
Temperature  
Mean Temperature 76 °F -  
Max Temperature 85 °F 80 °F - ()
Min Temperature 68 °F 68 °F - ()
Cooling Degree Days 12    
Growing Degree Days 26 (Base 50)    
Moisture  
Dew Point 71 °F    
Average Humidity 76    
Maximum Humidity 94    
Minimum Humidity 55    
Precipitation  
Precipitation 0.00 in 0.69 in - ()
Sea Level Pressure  
Sea Level Pressure 29.87 in    
Wind  
Wind Speed 5 mph ()    
Max Wind Speed 85 mph    
Max Gust Speed -    
Visibility 7.4 miles    
Events      
T = Trace of Precipitation, MM = Missing Value Source: Averaged Metar Reports

Daily Weather History Graph

Daily Weather History Graph

Search for Another Location

Airport:

Trip Planner

Search our weather history database for the weather conditions in past years. The results will help you decide how hot, cold, wet, or windy it might be!

Date:

Astronomy

Oct. 27, 2012 Rise Set
Actual Time 5:42 AM CST 5:19 PM CST
Civil Twilight 5:20 AM CST 5:41 PM CST
Nautical Twilight 4:55 AM CST 6:06 PM CST
Astronomical Twilight 4:29 AM CST 6:32 PM CST
Moon 3:55 PM CST 3:50 AM CST
Length of Visible Light 12h 21m
Length of Day
11h 37m
Waxing Gibbous, 96% of the Moon is Illuminated
Oct 27
Waxing Gibbous
Oct 29
Full
Nov 6
Last Quarter
Nov 13
New
Nov 20
First Quarter

Hourly Weather History & Observations

Time (CST) Temp. Heat Index Dew Point Humidity Pressure Visibility Wind Dir Wind Speed Gust Speed Precip Events Conditions
12:00 AM 70 °F - 69 °F 94% 29.86 in 12 mi Calm Calm - -   Haze
12:00 AM 69.8 °F - 68.0 °F 94% 29.86 in 6.2 mi Calm Calm - N/A   Partly Cloudy
6:00 AM 70 °F - 68 °F 90% 29.86 in 12 mi Calm Calm - -   Haze
6:00 AM 69.8 °F - 68.0 °F 94% 29.86 in 6.2 mi Calm Calm - N/A   Scattered Clouds
7:00 AM 73.4 °F - 69.8 °F 88% 29.86 in 6.2 mi Calm Calm - N/A   Partly Cloudy
8:00 AM 80.6 °F 83.9 °F 69.8 °F 70% 29.89 in 6.2 mi SW 2.3 mph - N/A   Partly Cloudy
9:00 AM 83 °F - 69 °F 55% 29.92 in 12 mi West 6.9 mph - -   Haze
9:00 AM 82.4 °F 86.3 °F 69.8 °F 66% 29.92 in 6.2 mi West 6.9 mph - N/A   Mostly Cloudy
10:00 AM 84.2 °F 88.4 °F 69.8 °F 62% 29.92 in 6.2 mi West 6.9 mph - N/A   Mostly Cloudy
11:00 AM 84.2 °F 89.6 °F 71.6 °F 66% 29.89 in 6.2 mi West 5.8 mph - N/A   Mostly Cloudy
12:00 PM 84 °F - 74 °F 64% 29.89 in 11 mi WNW 8.1 mph - -   Haze
12:00 PM 84.2 °F 90.9 °F 73.4 °F 70% 29.89 in 6.2 mi WNW 8.1 mph - N/A   Scattered Clouds
1:00 PM 84.2 °F 90.9 °F 73.4 °F 70% 29.86 in 6.2 mi North 11.5 mph - N/A   Scattered Clouds
2:00 PM 86.0 °F 93.4 °F 73.4 °F 66% 29.83 in 6.2 mi WNW 8.1 mph - N/A   Scattered Clouds
3:00 PM 85 °F - 73 °F 60% 29.83 in 10 mi WNW 9.2 mph - -   Haze
3:00 PM 84.2 °F 90.9 °F 73.4 °F 70% 29.83 in 6.2 mi WNW 9.2 mph - N/A   Scattered Clouds
4:00 PM 84.2 °F 90.9 °F 73.4 °F 70% 29.83 in 6.2 mi West 8.1 mph - N/A   Scattered Clouds
5:00 PM 82.4 °F 87.2 °F 71.6 °F 70% 29.83 in 6.2 mi WSW 85.2 mph - N/A   Scattered Clouds
6:00 PM 79 °F - 72 °F 75% 29.87 in 7 mi SSW 2.3 mph - -   Haze
6:00 PM 78.8 °F - 71.6 °F 78% 29.86 in 6.2 mi SSW 2.3 mph - N/A   Mostly Cloudy
7:00 PM 75.2 °F - 71.6 °F 89% 29.86 in 6.2 mi South 3.5 mph - N/A   Partly Cloudy
8:00 PM 73.4 °F - 69.8 °F 88% 29.89 in 6.2 mi SE 2.3 mph - N/A   Partly Cloudy
9:00 PM 72 °F - 68 °F 82% 29.93 in 8 mi SSE 2.3 mph - -   Haze
9:00 PM 71.6 °F - 68.0 °F 88% 29.92 in 6.2 mi SSE 2.3 mph - N/A   Partly Cloudy